Regional Weather Roundup
Issued by NWS

Home | Current Version | Previous Version | Text Only | Print | Product List | Glossary On
Versions: 1 2 3 4 5 6 7 8 9 10 11 12 13 14 15 16 17 18 19 20 21 22 23 24 25 26 27 28 29 30 31 32 33 34 35 36 37 38 39 40 41 42 43 44 45 46 47 48 49 50
000
ASUS43 KLMK 280210
RWRKY
KENTUCKY REGIONAL WEATHER ROUNDUP
NATIONAL WEATHER SERVICE LOUISVILLE KY
900 PM EST TUE JAN 27 2015

NOTE "FAIR" INDICATES FEW OR NO CLOUDS BELOW 12,000 FEET
WITH NO SIGNIFICANT WEATHER AND/OR OBSTRUCTIONS TO VISIBILITY.

KYZ001>023-026-027-061>063-070>075-280300-
WESTERN AND SOUTH CENTRAL KENTUCKY

CITY           SKY/WX    TMP DP  RH WIND       PRES   REMARKS
PADUCAH        CLEAR     34  28  79 NE7       30.22R WCI  28
HENDERSON      CLOUDY    34  28  80 N7        30.24S WCI  28
OWENSBORO      CLOUDY    33  30  89 N7        30.25R WCI  27
HOPKINSVILLE   CLOUDY    35  29  78 N8        30.22R WCI  29
BOWLING GREEN  CLOUDY    34  29  82 N3        30.23R
GLASGOW        CLOUDY    32  28  86 N6        30.21R WCI  26
$$

KYZ024-025-028>034-038-045-046-053-280300-
NORTH CENTRAL KENTUCKY

CITY           SKY/WX    TMP DP  RH WIND       PRES   REMARKS
LOUISVILLE/SDF PTCLDY    29  13  51 N10       30.24R WCI  20
LOUISVILLE/LOU CLEAR     29  14  53 N5        30.24R WCI  24
FORT KNOX      CLOUDY    31  24  77 NW6       30.20R WCI  25
$$

KYZ035>037-039>044-047>052-055>060-089>105-280300-
NORTHEAST KENTUCKY

CITY           SKY/WX    TMP DP  RH WIND       PRES   REMARKS
LEXINGTON      CLEAR     24  12  60 N6        30.20R WCI  17
COVINGTON      CLEAR     21  13  71 N9        30.22R WCI  11
FRANKFORT      CLEAR     24  13  62 N3        30.20R
$$

KYZ054-064>069-076>088-106>120-280300-
SOUTHEAST KENTUCKY

CITY           SKY/WX    TMP DP  RH WIND       PRES   REMARKS
JACKSON        CLEAR     24  12  60 VRB3      30.14R
LONDON         CLOUDY    30  19  63 N5        30.15R WCI  25
SOMERSET       CLEAR     28  23  80 NW3       30.20R
MIDDLESBORO    PTCLDY    29  22  74 NW6       30.15R WCI  23
MONTICELLO     CLOUDY    31  26  81 N6        30.21R WCI  25
$$




USA.gov is the U.S. government's official web portal to all federal, state and local government web resources and services.